Theta_e
323 319 321 318 304 303 298 302 303 304 304 311 313 311 313 319 317 313 334 337 338 339 344 346 347 348 348 348 347 346 346 344 345 345 345 344 344 344 344 343 343 342 338 338 338 340 340 338 340
317 317 319 313 300 296 298 303 301 304 310 310 310 312 313 316 327 329 332 339 339 337 344 344 345 348 349 348 347 346 345 344 343 343 343 343 343 344 343 343 341 339 337 339 338 337 339 335 338
316 318 311 306 300 295 297 302 301 309 310 307 309 314 317 320 328 330 336 338 338 335 342 344 344 348 348 348 347 346 345 345 342 340 341 341 341 341 340 338 338 338 335 339 340 337 336 337 337
314 315 311 299 297 301 300 303 308 307 308 308 309 310 324 329 329 331 338 338 337 335 338 341 345 348 348 347 347 346 346 345 344 343 341 340 341 340 340 338 339 339 339 341 340 339 338 338 339
314 312 299 297 298 302 304 306 307 306 306 307 307 305 316 318 318 328 336 337 336 335 340 343 344 347 347 347 347 346 346 345 344 343 342 341 340 339 340 338 338 339 339 340 341 340 339 338 340
305 305 296 294 298 302 304 306 305 305 307 307 306 306 314 314 312 313 333 335 336 336 338 342 338 342 344 345 345 345 345 344 344 343 342 341 341 340 338 338 338 338 338 341 340 341 339 338 339
303 300 295 296 297 299 302 306 301 303 304 305 307 302 314 311 309 308 325 333 336 337 337 338 340 339 336 340 340 342 343 343 343 342 341 339 339 339 336 337 337 339 338 340 341 339 338 338 340
307 302 296 295 295 297 303 302 303 304 304 308 307 302 302 306 310 309 315 328 333 335 336 336 337 338 338 339 333 335 338 339 339 338 336 334 333 333 332 332 334 338 339 339 339 337 337 338 339
309 297 293 296 297 298 302 298 302 302 300 302 305 303 308 309 310 310 309 310 321 330 334 337 337 337 337 337 335 331 332 334 334 333 330 329 331 331 329 328 331 335 337 337 338 337 336 335 334
300 295 297 299 299 297 300 298 298 296 297 298 300 304 308 307 304 303 305 307 308 310 312 314 334 337 337 338 338 337 339 338 337 337 335 333 332 329 329 325 326 330 331 334 336 336 332 328 329
301 296 299 298 299 299 297 296 298 295 294 297 297 299 303 304 301 301 300 300 299 300 304 306 310 313 319 333 336 338 336 336 338 336 335 335 333 329 328 327 325 325 322 327 331 330 328 325 324
294 300 299 301 299 297 296 298 295 296 296 300 297 297 297 298 298 298 297 297 296 298 299 301 303 306 307 308 311 330 334 334 332 333 333 333 332 331 329 328 327 325 325 323 324 327 327 323 324
294 295 297 297 297 296 297 293 293 294 297 298 299 299 295 295 296 297 298 297 297 298 299 300 301 301 304 305 306 307 310 315 330 332 333 333 332 332 330 329 328 327 326 324 323 325 326 324 324
296 295 295 295 295 294 292 291 292 294 296 297 297 296 296 296 296 296 297 297 298 299 297 300 300 301 302 302 303 304 305 306 308 315 327 331 330 330 330 329 328 328 327 326 325 324 326 325 324
296 290 293 293 294 292 292 288 289 294 296 294 294 295 295 296 297 295 296 295 295 298 298 300 300 301 301 302 303 304 305 306 305 307 310 317 326 327 327 329 328 327 326 326 325 324 325 325 325
290 290 287 290 291 291 288 285 293 294 292 292 293 293 294 294 295 295 296 295 294 296 298 299 302 300 301 301 302 303 304 304 305 308 309 311 314 320 325 324 324 326 326 326 325 323 323 324 324
289 283 287 287 290 289 287 285 292 293 292 290 292 291 292 293 294 295 295 294 295 297 298 299 300 300 301 302 302 302 303 303 304 305 306 310 315 316 315 319 323 322 323 323 324 323 322 322 322
283 282 287 285 287 288 286 286 291 293 293 292 292 292 292 292 293 294 295 296 296 296 297 299 300 299 300 300 300 302 303 304 305 305 307 309 311 313 315 315 317 321 320 321 322 322 322 321 321
286 284 284 288 288 284 285 286 289 291 292 291 291 291 290 291 292 295 296 296 295 297 298 297 297 297 299 299 299 301 301 304 305 306 307 308 309 312 311 312 315 319 319 319 320 319 319 319 321
285 282 283 288 288 285 285 284 289 291 291 290 289 288 290 291 292 294 295 295 296 295 294 294 295 296 297 298 300 300 299 300 301 302 303 305 309 311 311 310 311 314 316 317 317 317 316 316 317
284 282 281 281 285 286 283 283 289 289 289 290 290 290 292 291 291 293 295 293 293 292 293 294 294 294 295 296 297 298 298 298 297 298 300 301 303 305 306 307 309 311 314 313 315 316 314 312 314
280 285 285 283 280 277 282 273 284 289 288 289 290 289 289 291 293 293 293 292 293 293 294 294 295 295 296 295 295 293 293 293 296 297 299 299 302 302 303 304 304 306 310 313 313 314 314 313 310
283 286 284 282 280 273 278 272 283 286 285 288 289 289 290 291 292 292 292 293 292 294 293 295 295 295 295 295 294 293 293 295 297 297 297 298 299 300 301 302 303 304 305 306 309 311 313 313 310
287 283 282 280 279 270 276 276 281 286 287 288 290 290 291 292 292 293 292 293 293 294 294 293 293 293 294 294 295 294 294 295 295 295 295 296 297 299 299 300 300 300 301 302 303 305 308 312 312
284 279 278 277 273 275 278 273 281 288 290 287 288 289 291 291 291 291 290 292 293 292 292 292 292 292 294 295 295 295 295 295 294 294 294 294 295 295 296 298 298 299 300 301 302 303 304 307 309
281 279 277 271 274 274 277 273 283 287 287 288 290 289 290 290 291 290 291 292 292 291 291 291 291 293 295 295 295 295 295 295 294 294 294 293 294 294 295 296 297 297 298 301 301 301 301 304 306
280 277 281 274 267 270 276 282 288 288 287 287 287 287 287 289 290 290 291 292 291 290 290 290 293 294 295 294 294 294 293 292 291 292 292 292 292 293 294 295 294 295 295 296 298 299 300 300 302
282 283 277 277 268 268 276 278 280 284 285 286 287 287 288 288 290 290 291 291 290 289 290 293 295 293 293 293 293 292 291 291 291 291 290 291 291 292 292 292 294 294 294 295 296 296 298 300 301
278 279 279 279 277 272 271 277 284 283 283 285 287 289 288 289 289 290 290 290 289 289 293 293 292 292 292 292 291 290 289 290 290 290 290 290 290 290 291 292 292 292 293 294 295 295 297 299 300
282 280 281 277 275 276 275 274 286 286 286 287 288 289 289 290 290 290 289 288 288 291 291 291 291 291 291 290 289 289 289 289 288 289 289 290 290 290 290 291 291 291 292 294 293 292 297 297 299
Wind_Speed
15 12 7 3 2 3 7 6 1 2 2 6 4 4 5 9 6 5 5 6 4 10 14 13 14 14 12 12 10 9 8 8 6 6 7 7 6 9 9 9 8 5 6 6 8 7 12 10 6
7 9 3 4 3 5 5 7 6 3 9 4 2 3 5 6 11 10 6 3 3 7 14 13 12 15 15 14 14 12 10 9 8 8 7 6 7 7 8 8 9 6 5 6 9 8 9 9 6
11 9 3 3 4 7 3 6 1 8 7 3 1 2 5 5 7 5 5 3 4 6 12 13 15 13 14 14 13 12 11 9 9 8 8 7 7 5 5 6 6 6 5 7 10 10 8 8 6
4 2 4 3 9 8 2 6 8 3 5 1 5 4 6 6 4 4 5 4 5 7 5 17 17 15 13 13 13 13 12 11 10 9 9 9 9 8 5 5 6 7 6 10 11 12 7 8 7
3 4 3 5 10 14 5 6 6 4 2 4 3 3 7 4 7 2 7 3 6 7 10 9 11 13 13 12 13 13 12 12 11 10 10 8 6 5 8 5 4 5 7 8 10 11 11 8 7
3 3 4 7 12 8 6 5 1 5 7 3 5 6 6 8 7 4 1 7 3 7 6 10 9 9 10 12 13 12 12 12 12 11 9 9 10 9 7 8 7 6 9 8 8 10 11 8 8
3 4 6 11 8 5 5 8 1 7 7 2 4 2 4 7 7 3 3 4 5 5 5 6 8 7 6 7 10 11 11 11 11 11 10 10 10 9 9 9 9 8 8 9 9 8 11 9 9
4 3 6 5 5 2 6 2 4 5 4 3 3 3 2 6 5 4 1 3 4 6 4 2 6 10 8 6 8 9 10 10 11 11 11 9 8 9 10 9 10 10 10 9 9 10 9 8 10
3 3 5 6 1 2 6 2 6 1 5 4 3 3 9 6 3 4 3 2 2 2 5 5 3 0 5 7 8 11 11 11 11 10 10 8 5 6 7 8 11 13 11 11 11 11 11 8 8
3 3 4 5 7 5 4 2 6 3 6 8 7 6 9 6 4 4 4 5 6 5 3 5 3 4 2 1 4 5 7 6 7 8 8 7 7 7 9 10 14 12 12 12 13 12 12 9 4
4 5 5 6 6 8 6 7 5 5 8 11 8 4 9 8 6 6 5 4 1 4 2 4 3 3 2 1 3 2 2 3 4 8 8 7 8 7 6 5 6 7 9 5 8 8 7 7 6
4 9 3 3 5 4 5 7 6 10 11 10 4 4 6 4 6 6 5 4 1 0 3 4 3 2 3 0 3 2 3 3 3 4 6 5 4 5 7 4 6 8 6 8 6 6 9 7 8
8 7 5 4 2 7 8 10 9 15 13 10 7 6 5 6 6 6 5 1 2 3 5 2 3 4 2 1 2 3 4 3 4 5 5 4 4 6 5 7 6 8 9 8 9 8 9 10 9
6 7 9 6 4 5 7 7 5 8 2 6 7 9 8 8 9 6 5 5 6 4 1 1 2 3 2 3 3 3 3 5 4 3 4 7 5 4 5 7 7 5 8 10 10 11 10 11 11
5 6 8 8 2 2 5 9 14 16 5 4 6 7 5 9 9 7 5 2 4 2 0 1 2 2 3 2 3 4 4 4 4 4 5 5 5 6 6 7 8 6 5 8 11 13 11 9 10
4 3 3 2 1 4 1 9 2 5 1 6 9 8 8 8 7 7 7 4 1 3 2 0 2 2 3 4 4 3 4 4 4 4 5 7 7 5 7 7 7 6 4 4 6 9 11 10 9
4 3 3 4 2 2 3 9 5 6 6 9 8 8 8 8 9 9 6 5 4 4 2 1 4 3 3 4 4 5 5 4 4 4 4 6 7 7 6 4 6 6 6 8 7 7 7 10 9
2 3 2 4 3 2 8 21 19 12 10 9 8 8 8 7 6 3 5 6 6 3 2 2 3 3 4 4 4 4 4 4 4 5 5 7 6 7 6 5 5 6 5 6 7 10 8 9 10
2 4 7 6 6 4 6 15 24 9 11 10 8 6 1 4 1 7 6 6 3 3 3 1 3 4 2 2 2 3 4 4 4 5 8 8 6 7 6 5 6 6 8 9 12 12 12 10 8
1 4 4 5 4 3 7 20 25 18 8 2 5 3 7 5 7 7 7 6 6 5 5 7 6 5 4 3 3 3 3 4 4 4 6 6 6 7 6 7 6 7 6 9 10 10 9 8 8
4 4 2 2 8 5 9 9 7 1 3 4 3 2 8 8 8 8 7 6 6 6 5 4 4 6 5 6 4 4 4 3 4 5 7 9 8 8 7 7 6 7 8 8 9 11 12 10 8
2 6 5 4 6 3 4 8 10 3 4 6 7 6 6 7 6 8 7 5 6 5 3 3 6 6 5 6 5 5 4 8 8 8 7 6 8 13 14 14 14 14 9 10 10 10 11 11 10
2 3 3 2 2 4 1 3 12 1 3 7 8 9 8 8 8 6 6 3 3 3 3 5 5 5 6 5 6 5 7 7 7 8 10 10 8 8 10 9 14 14 11 12 13 11 13 12 10
4 2 4 2 3 2 2 3 9 1 2 4 5 6 7 8 8 7 5 2 4 3 4 5 6 6 6 6 7 7 9 11 11 11 11 10 10 9 11 12 12 10 10 12 12 13 13 13 13
2 2 1 3 2 5 5 3 12 13 9 2 4 6 6 6 7 5 3 3 4 6 6 6 7 7 7 7 7 7 9 11 14 13 11 13 11 10 11 11 12 10 13 13 11 12 14 15 13
5 1 4 4 3 3 4 6 9 3 3 6 6 6 6 6 3 5 5 4 4 6 7 7 7 8 7 7 7 7 12 10 11 13 12 12 12 12 12 13 11 10 11 12 14 12 15 14 13
1 1 3 4 2 3 5 6 9 10 7 7 4 2 3 5 1 3 4 3 4 5 7 8 8 8 7 8 9 12 12 13 12 15 14 12 15 12 14 15 16 17 17 15 14 10 14 16 14
3 0 1 3 3 5 4 3 4 9 7 6 8 8 7 3 5 4 4 4 4 4 6 7 6 8 11 12 10 10 12 13 14 13 15 16 16 16 16 16 16 15 16 15 15 15 15 15 13
2 2 2 0 3 4 3 6 3 4 1 4 5 5 6 5 4 5 6 5 4 5 5 6 9 12 11 11 12 12 12 13 13 13 14 15 16 15 16 16 15 16 17 16 13 15 17 16 17
3 2 4 3 2 2 2 9 1 7 4 1 7 8 6 5 6 6 6 5 6 6 6 9 11 12 10 11 12 13 14 13 13 13 15 15 16 16 16 15 16 16 17 15 13 16 15 14 14
Wind_Direction
314 313 305 291 249 206 265 250 55 130 168 67 50 0 353 40 18 81 85 70 98 126 145 155 153 158 159 152 146 143 147 150 156 168 175 175 178 191 185 180 167 171 176 188 176 157 162 155 164
306 300 259 273 238 247 261 176 132 231 70 32 288 219 251 85 81 121 127 32 79 125 140 160 160 166 164 161 160 160 162 168 173 174 180 184 189 218 192 185 170 173 198 208 191 156 148 164 154
268 271 279 214 221 241 354 34 137 74 69 291 187 324 12 80 39 71 59 112 136 127 145 158 162 171 171 170 171 167 166 175 182 191 197 189 190 188 156 151 161 182 229 221 183 158 190 151 176
306 214 266 265 261 256 343 83 46 72 109 275 27 93 79 54 66 52 91 116 124 133 143 144 161 170 179 177 174 173 175 182 191 195 196 205 190 183 173 194 181 205 216 215 183 151 178 165 192
236 260 250 228 241 261 92 53 51 284 287 141 86 236 107 102 99 45 113 141 127 138 113 140 151 162 175 178 179 179 184 191 197 200 206 197 199 197 172 205 225 222 228 200 184 165 150 187 201
252 281 253 241 246 218 67 59 88 262 282 166 157 264 113 126 104 30 104 127 92 134 134 133 147 152 174 180 182 187 192 198 203 206 213 204 201 208 202 207 221 226 248 203 204 185 163 195 210
262 207 257 274 305 322 89 59 299 273 265 296 63 334 100 129 93 58 11 98 141 99 113 143 153 161 171 186 189 189 196 203 204 207 210 214 213 218 198 202 217 219 223 227 191 209 172 197 204
321 284 272 241 250 301 67 56 38 325 296 61 4 214 83 89 109 133 306 65 133 106 150 240 181 164 177 186 203 201 201 203 207 209 211 215 216 215 211 210 217 221 210 238 206 197 204 192 194
283 281 263 264 183 70 115 267 118 46 313 297 202 322 123 123 147 155 141 169 93 54 158 170 164 302 185 188 187 201 203 203 207 215 216 214 219 218 223 219 212 217 207 206 212 201 198 202 194
235 243 326 17 16 3 48 167 328 316 244 232 242 233 144 158 192 215 219 210 163 142 61 14 200 194 278 295 163 194 194 204 210 217 216 213 214 219 214 208 213 215 208 206 205 209 203 184 185
207 232 60 27 27 10 309 311 266 243 259 235 258 256 194 168 201 225 242 259 347 59 80 175 263 19 31 263 219 215 213 221 205 214 214 218 216 215 232 209 208 213 211 209 209 211 213 193 185
287 237 2 12 79 308 280 322 290 262 241 292 333 300 331 173 202 237 229 232 217 65 328 338 318 233 180 223 316 234 227 227 220 242 232 218 236 233 223 219 196 197 199 208 204 206 209 209 202
231 278 344 271 211 244 264 266 261 264 261 272 278 262 232 267 258 261 249 80 272 254 248 281 328 303 237 218 260 300 300 287 214 206 215 217 217 214 231 235 219 200 199 200 209 202 207 214 210
357 317 288 283 282 275 265 268 310 257 337 241 248 250 223 226 247 242 197 207 229 248 354 50 309 278 267 228 250 271 292 292 300 282 216 205 194 189 226 229 235 219 219 211 201 212 203 209 210
283 296 277 218 76 311 341 271 225 243 184 243 231 255 252 230 218 220 197 253 282 347 281 154 221 8 347 287 248 241 240 249 261 265 277 258 215 193 204 220 238 243 235 227 218 209 208 209 212
244 210 282 94 172 155 224 278 274 109 160 224 240 227 225 224 228 199 216 215 118 186 215 225 57 330 279 277 267 262 261 249 244 244 239 247 259 230 195 207 218 215 234 250 268 225 208 211 206
180 266 260 148 96 307 207 283 194 159 201 233 237 237 233 225 211 210 210 148 180 204 202 68 44 357 330 302 287 274 269 267 263 263 255 246 230 233 235 220 210 202 220 219 222 232 243 215 198
13 332 346 284 68 318 270 267 272 268 263 264 247 240 235 230 245 194 132 138 169 169 144 171 209 224 251 254 270 272 264 260 247 245 243 241 238 238 229 227 222 190 203 221 229 235 222 234 242
345 289 276 318 66 336 268 288 288 280 274 272 265 262 150 86 277 108 107 122 165 173 187 122 28 327 316 257 256 277 243 246 240 237 240 238 238 236 241 230 223 201 205 222 235 240 234 234 221
242 289 296 294 30 335 311 298 284 287 258 168 82 103 121 156 130 132 143 162 193 141 59 27 12 336 309 296 263 228 248 266 257 279 291 290 269 248 235 223 223 216 208 210 219 221 231 232 225
246 226 343 236 330 258 319 278 301 48 96 116 150 173 148 162 162 155 162 177 145 82 49 3 329 304 289 290 299 298 290 287 271 264 263 262 256 258 254 251 239 224 219 217 209 215 221 234 230
259 29 47 333 17 287 28 280 300 292 175 186 185 194 170 154 138 152 161 182 157 150 172 257 278 287 302 321 305 286 268 277 279 285 283 279 260 253 249 244 243 240 236 227 215 206 212 216 226
125 48 49 9 70 30 292 71 272 200 237 200 196 183 183 172 155 153 161 188 17 18 279 272 297 303 296 301 298 293 293 288 294 295 293 289 284 280 268 260 247 238 236 238 229 221 210 212 219
104 237 166 144 111 8 230 112 289 313 155 91 161 173 180 163 151 125 92 30 277 295 321 308 303 295 313 317 308 302 297 298 295 290 288 286 284 278 271 271 267 264 251 241 238 236 227 216 214
231 251 310 306 349 224 130 68 251 306 335 124 162 156 180 143 128 148 181 276 320 316 311 317 318 313 313 314 306 302 305 308 301 298 293 290 286 278 270 266 268 272 266 261 258 254 243 233 224
208 25 147 244 314 300 25 239 256 194 87 35 89 114 100 103 150 181 206 216 297 320 322 318 321 312 299 297 313 314 300 294 291 290 288 285 280 278 284 287 290 295 300 286 261 258 259 252 241
73 333 342 92 64 58 232 264 289 34 43 22 93 96 176 121 34 270 251 287 345 334 323 321 309 298 322 317 314 309 302 296 290 288 286 283 280 276 275 266 262 265 270 272 278 265 252 248 247
69 335 22 359 332 279 275 255 236 20 6 46 45 34 60 87 347 317 294 339 340 328 311 299 334 327 316 315 311 303 300 293 287 283 279 278 278 273 269 267 266 260 257 260 260 262 260 259 251
132 198 193 71 171 217 314 268 78 166 140 40 343 324 288 320 311 324 329 319 328 321 327 352 328 314 312 315 307 298 295 290 286 280 279 276 275 271 268 261 260 260 260 249 252 257 257 261 242
34 353 169 152 247 251 180 267 35 161 166 300 291 277 292 315 309 329 316 336 338 336 357 327 315 318 311 311 308 298 294 289 287 282 277 274 272 269 265 257 254 251 251 244 245 253 248 237 252